{"data":{"norad_id":55769,"intl_designator":"2023-028AE","name":"STARLINK-5584","alt_names":[],"object_type":"PAYLOAD","status":"ACTIVE","operator":null,"country":"US","launch_date":"2023-03-03","launch_site_code":"AFWTR","launch_vehicle":null,"mission":null,"orbit_class":"UNKNOWN","rcs_meters":null,"size_class":null,"mass_kg":null,"dimensions":null,"purposes":["comms"],"wikipedia_slug":null,"has_3d_model":false,"image_url":null,"decayed_at":null,"tle_current":{"epoch":"2026-05-25T01:49:37.194816Z","epoch_age_seconds":75379,"freshness":"FRESH","line1":"1 55769U 23028AE  26145.07612494 -.00000013  00000+0  66886-5 0  9991","line2":"2 55769  70.0003  31.9190 0002696 269.7516  90.3335 14.98331920177970","mean_motion":14.9833192,"eccentricity":0.0002696,"inclination_deg":70.0003,"raan_deg":31.919,"arg_perigee_deg":269.7516,"mean_anomaly_deg":90.3335,"bstar":6.6886e-6,"rev_number":17797,"period_min":96.106875971781,"perigee_km":570.17618310647,"apogee_km":573.9237239118,"semimajor_km":6950.1869535091,"source":"CELESTRAK","updated_at":"2026-05-25T13:38:17.883330Z"}}}